Other Surface Observations
Issued by NWS Tucson, AZ

Home | Current Version | Previous Version | Text Only | Print | Product List | Glossary On
Versions: 1 2 3 4 5 6 7 8 9 10 11 12 13 14 15 16 17 18 19 20 21 22 23 24 25 26 27 28 29 30 31 32 33 34 35 36 37 38 39 40 41 42 43 44 45 46 47 48 49 50
000
SXUS55 KTWC 280015
OSOTWC

WEATHER ROUNDUP FOR SOUTHEAST ARIZONA
NATIONAL WEATHER SERVICE TUCSON AZ
515 PM MST MON APR 27 2015

AZZ504>506-514-280115-
LOCATION       SKY/WX    TMP DP  RH WIND       PRES   REMARKS
TUCSON         SUNNY     81  34  18 NE6       29.90S
DAVIS-MONTHAN  SUNNY     78  37  22 VRB5      29.88S
CHILDRENS PARK N/A       80  35  20 NW4               PIMA CO DEQ
ALVERNON/22ND  N/A      N/A N/A N/A N/A               PIMA CO DEQ
CHERRY/GLENN   N/A      N/A N/A N/A N/A               PIMA CO DEQ
TANGERINE      N/A       80 N/A N/A N10               PIMA CO DEQ
CONTL RANCH    N/A       82  36  19 N9                PIMA CO DEQ
GRANT/1ST      N/A       81  35  19 NW3               PIMA CO DEQ
CRAYCROFT/22ND N/A      N/A N/A N/A N/A               PIMA CO DEQ
GOLFLINKS/KOLB N/A      N/A N/A N/A N/A               PIMA CO DEQ
AJO/12TH       N/A       80  34  19 SW3               PIMA CO DEQ
SAGUARO EAST   N/A      N/A N/A N/A N/A               PIMA CO DEQ
FAIRGROUNDS    N/A       78 N/A N/A N6                PIMA CO DEQ
SAGUARO        N/A       81  36  20 SW5G11            *SABINO CYN
SAN CARLOS     N/A       80  41  25 SE4G12            *SAN CARLOS
GREEN VALLEY   N/A       77  34  21 N5                PIMA CO DEQ
HORSE CAMP CYN N/A       73  39  29 S4G12             *ARAVAIPA CYN
RINCON MTNS    N/A       50  33  51 E2                *NR MANNING CAMP
$$

AZZ509>511-280115-
LOCATION       SKY/WX    TMP DP  RH WIND       PRES   REMARKS
SAFFORD        SUNNY     76  38  25 W12       29.90S
STRAY HORSE    N/A       57  28  33 SE6G12            *
TRAIL CABIN    N/A       65  29  26 E5G14             *N OF GRANVILLE
BLACK HILLS    N/A       75  41  29 SE5G11            *N OF FT THOMAS
DRY LAKE       N/A       53  39  59 S5G14             *NATANES MTNS
NOON CREEK     N/A       69  36  30 NE4G13            *PINALENO MTNS
COLUMBINE      N/A       53  23  31 NW2               *PINALENO MTNS
GUTHRIE        N/A       63  35  35 E5G18             *SW OF GUTHRIE
$$

AZZ502-503-513-280115-
LOCATION       SKY/WX    TMP DP  RH WIND       PRES   REMARKS
NOGALES        MOSUNNY   74  31  20 N12G20    29.92S
SELLS          N/A       83  31  15 NE8G21            *
SASABE         N/A       78  35  21 N11G27            *ALTAR VLY
HOPKINS        N/A       60  33  36 SE6G12            *SANTA RITA MTNS
CARR CYN       N/A       69  34  27 NE5               *W OF HEREFORD
$$

AZZ507-508-512-280115-
LOCATION       SKY/WX    TMP DP  RH WIND       PRES   REMARKS
SIERRA VISTA   SUNNY     69  29  23 N7        29.99R
DOUGLAS        SUNNY     72  35  25 E8        29.96R
EMPIRE MTNS    N/A       71  34  26 N6G18             *LAS CIENEGAS NCA
MULESHOE RANCH N/A       68  36  31 NE4G13            *PRESERVE
HEADQUARTERS   N/A       67  31  26 E3G15             *CHIRICAHUA MTNS
$$

.............................NOTES.............................
THIS IS AN AUTOMATED COLLECTIVE WITH MINIMAL QUALITY CONTROL.
PIMA CO DEQ SITES HAVE NONSTANDARD WIND SENSOR HEIGHTS.
PIMA CO DEQ SITES DO NOT REPORT WIND GUSTS.
* INDICATES WIND SENSORS LOCATED AT 20 FEET INSTEAD OF 33 FEET.
..............................KEY..............................
SKY/WX - SKY CONDITION/WEATHER
TMP    - TEMPERATURE IN FAHRENHEIT
DP     - DEWPOINT IN FAHRENHEIT
RH     - RELATIVE HUMIDITY IN PERCENT
WIND   - DIRECTION AND SPEED IN MILES PER HOUR (MPH)
VRB    - VARIABLE WIND DIRECTION
PRES   - MEAN SEA LEVEL PRESSURE IN INCHES OF MERCURY
         F - FALLING PRESSURE   R - RISING PRESSURE
         S - STEADY PRESSURE
VSB    - VISIBILITY IN MILES
HX     - HEAT INDEX IN FAHRENHEIT
WCI    - WIND CHILL INDEX IN FAHRENHEIT
N/A    - NOT AVAILABLE
AFB    - AIR FORCE BASE
         DAVIS-MONTHAN IS DAVIS-MONTHAN AIR FORCE BASE
CYN    - CANYON
MTNS   - MOUNTAINS
NCA    - NATIONAL CONSERVATION AREA
NR     - NEAR
VLY    - VALLEY
CONTL  - CONTINENTAL
PIMA CO DEQ - PIMA COUNTY DEPT OF ENVIRONMENTAL QUALITY



USA.gov is the U.S. government's official web portal to all federal, state and local government web resources and services.